Weather History for LDOS - November, 2012

Change the Weather History Date:

Tuesday, November 6, 2012

  Actual Average Record
Temperature  
Mean Temperature 47 °F -  
Max Temperature 55 °F - - ()
Min Temperature 39 °F - - ()
Degree Days  
Heating Degree Days 18    
Moisture  
Dew Point 44 °F    
Average Humidity 88    
Maximum Humidity 100    
Minimum Humidity 63    
Precipitation  
Precipitation 0.00 in - - ()
Sea Level Pressure  
Sea Level Pressure 29.98 in    
Wind  
Wind Speed 4 mph ()    
Max Wind Speed 15 mph    
Max Gust Speed -    
Visibility 4.7 miles    
Events Fog , Rain    
T = Trace of Precipitation, MM = Missing Value Source: Averaged Metar Reports

Daily Weather History Graph

Daily Weather History Graph

Search for Another Location

Airport or City:

Trip Planner

Search our weather history database for the weather conditions in past years. The results will help you decide how hot, cold, wet, or windy it might be!

Date:

Astronomy

Nov. 06, 2012 Rise Set
Actual Time 6:31 AM CET 4:24 PM CET
Civil Twilight 6:00 AM CET 4:56 PM CET
Nautical Twilight 5:24 AM CET 5:31 PM CET
Astronomical Twilight 4:50 AM CET 6:05 PM CET
Moon 10:47 PM CET (11/6) 12:12 PM CET (11/6)
Length of Visible Light 10h 55m
Length of Day
9h 53m
Waning Gibbous, 56% of the Moon is Illuminated
Nov 6
Waning Gibbous
Nov 7
Last Quarter
Nov 13
New
Nov 20
First Quarter
Nov 28
Full

Hourly Weather History & Observations

Time (CET) Temp. Windchill Dew Point Humidity Pressure Visibility Wind Dir Wind Speed Gust Speed Precip Events Conditions
12:00 AM 46.4 °F 42.4 °F 44.6 °F 93% 29.86 in - WSW 8.1 mph - N/A   Clear
12:30 AM 44.6 °F 41.4 °F 42.8 °F 93% 29.86 in - SW 5.8 mph - N/A   Clear
1:00 AM 42.8 °F 38.6 °F 41.0 °F 93% 29.86 in - SW 6.9 mph - N/A   Clear
1:30 AM 42.8 °F 37.5 °F 41.0 °F 93% 29.89 in - SW 9.2 mph - N/A   Clear
2:00 AM 42.8 °F 38.6 °F 41.0 °F 93% 29.89 in - SSW 6.9 mph - N/A   Clear
2:30 AM 41.0 °F 36.4 °F 39.2 °F 93% 29.89 in - SSW 6.9 mph - N/A   Clear
3:00 AM 42.8 °F 40.1 °F 41.0 °F 93% 29.89 in - SSW 4.6 mph - N/A   Clear
3:30 AM 42.8 °F 39.3 °F 41.0 °F 93% 29.89 in - SSW 5.8 mph - N/A   Clear
4:00 AM 42.8 °F 38.6 °F 41.0 °F 93% 29.89 in - SSW 6.9 mph - N/A   Clear
4:30 AM 42.8 °F 38.6 °F 41.0 °F 93% 29.92 in - SW 6.9 mph - N/A   Clear
5:00 AM 42.8 °F - 41.0 °F 93% 29.92 in 1.9 mi Calm Calm - N/A   Mist
5:30 AM 42.8 °F - 41.0 °F 93% 29.92 in 1.2 mi West 2.3 mph - N/A   Mist
6:00 AM 42.8 °F - 41.0 °F 93% 29.92 in 0.4 mi Calm Calm - N/A Fog Fog
6:30 AM 42.8 °F - 41.0 °F 93% 29.92 in 0.3 mi Calm Calm - N/A Fog Fog
7:00 AM 39.2 °F - 39.2 °F 100% 29.95 in 0.3 mi Calm Calm - N/A Fog Fog
7:30 AM 39.2 °F - 39.2 °F 100% 29.95 in 0.5 mi Calm Calm - N/A Fog Fog
8:00 AM 41.0 °F - 39.2 °F 93% 29.95 in 1.9 mi Calm Calm - N/A   Mist
8:30 AM 42.8 °F - 41.0 °F 93% 29.98 in 3.1 mi Calm Calm - N/A   Mist
9:00 AM 44.6 °F - 42.8 °F 93% 29.98 in 4.3 mi Calm Calm - N/A   Unknown
9:30 AM 46.4 °F - 44.6 °F 93% 29.98 in - Calm Calm - N/A   Clear
10:00 AM 50.0 °F - 46.4 °F 87% 29.98 in - Calm Calm - N/A   Clear
10:30 AM 51.8 °F - 48.2 °F 88% 29.98 in - Variable 1.2 mph - N/A   Clear
11:00 AM 53.6 °F - 48.2 °F 82% 29.98 in - Calm Calm - N/A   Clear
11:30 AM 55.4 °F - 48.2 °F 77% 29.98 in - Calm Calm - N/A   Clear
12:00 PM 55.4 °F - 46.4 °F 72% 29.95 in - Calm Calm - N/A   Clear
12:30 PM 55.4 °F - 46.4 °F 72% 29.95 in - SSE 5.8 mph - N/A   Clear
1:00 PM 55.4 °F - 44.6 °F 67% 29.95 in - ESE 3.5 mph - N/A   Clear
1:30 PM 55.4 °F - 42.8 °F 63% 29.95 in - East 5.8 mph - N/A   Clear
2:00 PM 55.4 °F - 42.8 °F 63% 29.95 in - ESE 8.1 mph - N/A   Clear
2:30 PM 55.4 °F - 44.6 °F 67% 29.95 in 6.2 mi East 8.1 mph - N/A   Partly Cloudy
3:00 PM 55.4 °F - 48.2 °F 77% 29.98 in 6.2 mi Variable 2.3 mph - N/A Rain Light Rain
3:30 PM 53.6 °F - 48.2 °F 82% 29.98 in 6.2 mi East 2.3 mph - N/A Rain Light Rain
4:00 PM 53.6 °F - 48.2 °F 82% 29.98 in 6.2 mi ENE 8.1 mph - N/A   Scattered Clouds
4:30 PM 53.6 °F - 48.2 °F 82% 29.98 in 6.2 mi ESE 4.6 mph - N/A   Scattered Clouds
5:00 PM 51.8 °F - 46.4 °F 82% 29.98 in 6.2 mi ENE 5.8 mph - N/A   Scattered Clouds
5:30 PM 51.8 °F - 46.4 °F 82% 30.01 in 6.2 mi East 4.6 mph - N/A   Partly Cloudy
6:00 PM 51.8 °F - 48.2 °F 88% 30.04 in 6.2 mi Calm Calm - N/A   Scattered Clouds
6:30 PM 51.8 °F - 48.2 °F 88% 30.04 in 6.2 mi Calm Calm - N/A Rain Light Rain
7:00 PM 50.0 °F - 48.2 °F 94% 30.04 in 6.2 mi Calm Calm - N/A Rain Light Rain
7:30 PM 50.0 °F - 48.2 °F 94% 30.04 in 6.2 mi Calm Calm - N/A Rain Light Rain
8:00 PM 50.0 °F - 48.2 °F 94% 30.06 in 6.2 mi Calm Calm - N/A Rain Light Rain
8:30 PM 50.0 °F - 48.2 °F 94% 30.09 in 6.2 mi NNE 10.4 mph - N/A Rain Light Rain
9:00 PM 48.2 °F - 46.4 °F 93% 30.09 in 6.2 mi North 9.2 mph - N/A Rain Rain
9:30 PM 48.2 °F - 46.4 °F 93% 30.09 in 6.2 mi North 10.4 mph - N/A Rain Rain
10:00 PM 48.2 °F - 46.4 °F 93% 30.12 in 6.2 mi NNE 15.0 mph - N/A Rain Light Rain
10:30 PM 48.2 °F - 46.4 °F 93% 30.12 in 6.2 mi NNE 13.8 mph - N/A Rain Light Rain
11:00 PM 46.4 °F 41.1 °F 44.6 °F 93% 30.15 in 6.2 mi NNE 11.5 mph - N/A Rain Light Rain
11:30 PM 46.4 °F 41.1 °F 44.6 °F 93% 30.15 in 6.2 mi NNE 11.5 mph - N/A Rain Light Rain